Port Angeles, WA
on Thursday, January 31, 2013

Thursday
Previous Day Next Day
Daily Summary
 ActualAverageRecord
Temperature
Mean Temperature °F °F  
Max Temperature 51°F 46°F 62°F (1960)
Min Temperature 44°F 33°F 12°F (1950)
Degree Days
Heating Degree Days 18    
Moisture
Dew Point 44°F   
Average Humidity 88    
Maximum Humidity 93    
Minimum Humidity 80    
Precipitation
Precipitation 0.00 in in in ()
Wind
Wind Speed 5 mph   
Max Wind Speed 12 mph   
Max Gust Speed mph   
Visibility 10 miles   
Events Rain   
Averages and records for this station are not official NWS values.
Key: T is trace of precipitation, MM is missing value
Source: NWS Daily Summary
Seasonal Weather Averages
Time(PST)TemperatureDew PointHumidity Pressure Visibility Wind DirectionWind SpeedGust SpeedPrecipitationEvents Conditions
12:53 AM 48.0°F 44.1°F 86% 30.37 in 10.0 miles WSW 11.5 mph - N/A   Overcast
1:53 AM 46.9°F 43.0°F 86% 30.36 in 10.0 miles West 9.2 mph - N/A   Mostly Cloudy
2:53 AM 46.9°F 43.0°F 86% 30.36 in 10.0 miles West 8.1 mph - 0.00 in Rain Light Rain
3:53 AM 45.0°F 42.1°F 90% 30.36 in 10.0 miles ESE 3.5 mph - 0.00 in   Scattered Clouds
4:53 AM 46.9°F 42.1°F 83% 30.35 in 10.0 miles Variable 3.5 mph - N/A   Overcast
5:53 AM 44.1°F 42.1°F 93% 30.34 in 10.0 miles Calm Calm - N/A   Mostly Cloudy
6:53 AM 44.1°F 42.1°F 93% 30.33 in 10.0 miles Calm Calm - N/A   Overcast
7:53 AM 44.1°F 42.1°F 93% 30.32 in 10.0 miles Calm Calm - 0.00 in Rain Light Rain
8:53 AM 45.0°F 43.0°F 93% 30.32 in 10.0 miles South 3.5 mph - 0.00 in Rain Light Rain
9:53 AM 46.9°F 45.0°F 93% 30.30 in 10.0 miles Calm Calm - 0.00 in   Overcast
10:53 AM 50.0°F 46.0°F 86% 30.32 in 10.0 miles Variable 4.6 mph - N/A   Overcast
11:31 AM 48.0°F 45.0°F 89% 30.30 in 10.0 miles NNW 3.5 mph - N/A   Overcast
11:46 AM 48.0°F 45.0°F 89% 30.29 in 10.0 miles Calm Calm - N/A   Mostly Cloudy
11:53 AM 48.0°F 44.1°F 86% 30.30 in 10.0 miles Calm Calm - N/A   Mostly Cloudy
12:41 PM 51.1°F 46.0°F 83% 30.28 in 10.0 miles NW 4.6 mph - N/A   Mostly Cloudy
12:51 PM 50.0°F 44.6°F 82% 30.28 in 10.0 miles Variable 4.6 mph - N/A   Mostly Cloudy
12:53 PM 50.0°F 45.0°F 83% 30.28 in 10.0 miles Variable 4.6 mph - N/A   Mostly Cloudy
1:01 PM 50.0°F 44.1°F 80% 30.28 in 10.0 miles WNW 5.8 mph - N/A   Overcast
1:13 PM 50.0°F 45.0°F 83% 30.28 in 10.0 miles North 3.5 mph - N/A   Overcast
1:53 PM 48.9°F 44.1°F 83% 30.29 in 10.0 miles North 5.8 mph - N/A   Overcast
2:07 PM 48.9°F 44.1°F 83% 30.28 in 10.0 miles North 3.5 mph - N/A   Overcast
2:48 PM 48.2°F 44.6°F 87% 30.28 in 10.0 miles Calm Calm - N/A   Overcast
2:53 PM 48.0°F 45.0°F 89% 30.29 in 10.0 miles Calm Calm - N/A   Overcast
3:23 PM 50.0°F 45.0°F 83% 30.28 in 10.0 miles Calm Calm - N/A   Overcast
3:53 PM 50.0°F 44.1°F 80% 30.29 in 10.0 miles Calm Calm - N/A   Overcast
4:10 PM 50.0°F 44.1°F 80% 30.29 in 10.0 miles Calm Calm - N/A   Overcast
4:34 PM 48.9°F 45.0°F 86% 30.29 in 10.0 miles Calm Calm - N/A   Overcast
4:53 PM 48.0°F 45.0°F 89% 30.30 in 10.0 miles Calm Calm - N/A   Overcast
5:23 PM 48.0°F 45.0°F 89% 30.30 in 10.0 miles NW 4.6 mph - N/A   Overcast
5:42 PM 46.9°F 45.0°F 93% 30.30 in 10.0 miles WNW 6.9 mph - N/A   Overcast
5:53 PM 46.9°F 45.0°F 93% 30.30 in 10.0 miles NW 6.9 mph - N/A   Overcast
6:53 PM 46.0°F 44.1°F 93% 30.31 in 10.0 miles NW 8.1 mph - N/A   Overcast
7:16 PM 46.0°F 44.1°F 93% 30.31 in 9.0 miles NW 9.2 mph - N/A   Overcast
7:53 PM 45.0°F 43.0°F 93% 30.32 in 7.0 miles WNW 6.9 mph - N/A   Overcast
8:14 PM 45.0°F 43.0°F 93% 30.31 in 10.0 miles West 8.1 mph - N/A   Overcast
8:30 PM 45.0°F 43.0°F 93% 30.31 in 10.0 miles West 5.8 mph - N/A   Overcast
8:50 PM 44.6°F 42.8°F 93% 30.31 in 10.0 miles West 8.1 mph - N/A   Overcast
8:53 PM 45.0°F 42.1°F 90% 30.32 in 10.0 miles West 6.9 mph - N/A   Overcast
9:53 PM 44.1°F 42.1°F 93% 30.32 in 10.0 miles WNW 3.5 mph - N/A   Overcast
10:53 PM 45.0°F 42.1°F 90% 30.33 in 10.0 miles West 4.6 mph - N/A   Overcast
11:21 PM 44.1°F 41.0°F 89% 30.33 in 10.0 miles WSW 3.5 mph - N/A   Overcast
11:53 PM 44.1°F 41.0°F 89% 30.35 in 10.0 miles Calm Calm - N/A   Overcast
Moon Phase
Jan. 31 Feb. 03 Feb. 10 Feb. 17 Feb. 25
Sunrise:07:42 AM (PST) Moon Rise:10:50 PM (PST)1/31
Sunset:05:12 PM (PST) Moon Set:09:19 AM (PST)1/31

Copyright © 2014 The Weather Underground, Inc.